Location: Lafig�re
(44.4503°N, 4.0357°E)
Time: 22:59:06
(UTC+00:00)

BlueWalker 3 - Pass Details

Date: 13 December 2022
Orbit: 499 x 517 km, 53.2° (Epoch: 04 February)

Event Time Altitude Azimuth Distance (km) Brightness Sun altitude
Rises 17:34:54 0° 296° (WNW) 2,625 6.3 -15.4°
Reaches altitude 10° 17:37:23 10° 282° (WNW) 1,731 5.6 -15.9°
Maximum altitude 17:40:36 24° 227° (SW) 1,073 4.3 -16.4°
Drops below altitude 10° 17:43:46 10° 172° (S) 1,711 4.7 -17.0°
Sets 17:46:12 0° 159° (SSE) 2,587 5.5 -17.4°
